Weather History for Aurora, NE

Change the Weather History Date:

Saturday, August 17, 2013

  Actual Average Record
Temperature  
Mean Temperature 68 °F -  
Max Temperature 76 °F 87 °F 108 °F (1983)
Min Temperature 59 °F 62 °F 46 °F (2012)
Cooling Degree Days 2    
Growing Degree Days 18 (Base 50)    
Moisture  
Dew Point 61 °F    
Average Humidity 83    
Maximum Humidity 100    
Minimum Humidity 62    
Precipitation  
Precipitation 0.00 in - - ()
Sea Level Pressure  
Sea Level Pressure 30.15 in    
Wind  
Wind Speed 7 mph (SSE)    
Max Wind Speed 14 mph    
Max Gust Speed 20 mph    
Visibility 10 miles    
Events      
Averages and records for this station are not official NWS values.
T = Trace of Precipitation, MM = Missing Value Source: NWS Daily Summary

Daily Weather History Graph

Daily Weather History Graph

Search for Another Location

Airport:

Trip Planner

Search our weather history database for the weather conditions in past years. The results will help you decide how hot, cold, wet, or windy it might be!

Date:

Astronomy

Aug. 17, 2013 Rise Set
Actual Time 6:44 AM CDT 8:26 PM CDT
Civil Twilight 6:14 AM CDT 8:56 PM CDT
Nautical Twilight 5:39 AM CDT 9:31 PM CDT
Astronomical Twilight 5:01 AM CDT 10:09 PM CDT
Moon 5:44 PM CDT (8/17) 2:48 AM CDT (8/17)
Length of Visible Light 14h 41m
Length of Day
13h 42m
Waxing Gibbous, 84% of the Moon is Illuminated
Aug 17
Waxing Gibbous
Aug 20
Full
Aug 28
Last Quarter
Sep 5
New
Sep 12
First Quarter

Hourly Weather History & Observations

Time (CDT) Temp. Dew Point Humidity Pressure Visibility Wind Dir Wind Speed Gust Speed Precip Events Conditions
12:15 AM 62.6 °F 62.2 °F 99% 30.18 in 10.0 mi SE 6.9 mph - N/A   Mostly Cloudy
12:35 AM 62.6 °F 62.1 °F 98% 30.18 in 10.0 mi SE 6.9 mph - N/A   Mostly Cloudy
12:55 AM 62.2 °F 61.7 °F 98% 30.18 in 10.0 mi SSE 6.9 mph - N/A   Mostly Cloudy
1:15 AM 62.2 °F 61.7 °F 98% 30.18 in 10.0 mi SSE 5.8 mph - N/A   Mostly Cloudy
1:35 AM 62.1 °F 61.7 °F 99% 30.18 in 10.0 mi SSE 4.6 mph - N/A   Mostly Cloudy
1:55 AM 62.6 °F 61.3 °F 96% 30.18 in 10.0 mi SSE 5.8 mph - N/A   Mostly Cloudy
2:15 AM 62.6 °F 61.0 °F 94% 30.17 in 10.0 mi SSE 6.9 mph - N/A   Mostly Cloudy
2:35 AM 61.9 °F 60.8 °F 96% 30.17 in 10.0 mi SSE 5.8 mph - N/A   Mostly Cloudy
2:55 AM 61.9 °F 60.8 °F 96% 30.17 in 10.0 mi SSE 5.8 mph - N/A   Mostly Cloudy
3:15 AM 61.9 °F 60.8 °F 96% 30.17 in 10.0 mi SSE 5.8 mph - N/A   Mostly Cloudy
3:35 AM 61.5 °F 61.0 °F 98% 30.17 in 10.0 mi SSE 4.6 mph - N/A   Overcast
3:55 AM 61.2 °F 60.8 °F 99% 30.17 in 10.0 mi SSE 5.8 mph - N/A   Overcast
4:15 AM 60.8 °F 60.8 °F 100% 30.17 in 10.0 mi SSE 5.8 mph - N/A   Scattered Clouds
4:35 AM 60.3 °F 60.3 °F 100% 30.17 in 7.0 mi SSE 3.5 mph - N/A   Scattered Clouds
4:55 AM 59.9 °F 59.9 °F 100% 30.17 in 7.0 mi SE 4.6 mph - N/A   Scattered Clouds
5:15 AM 59.5 °F 59.5 °F 100% 30.17 in 7.0 mi Calm Calm - N/A   Scattered Clouds
5:35 AM 59.7 °F 59.7 °F 100% 30.16 in 7.0 mi SSE 4.6 mph - N/A   Scattered Clouds
5:55 AM 59.5 °F 59.5 °F 100% 30.17 in 7.0 mi SSE 3.5 mph - N/A   Scattered Clouds
6:15 AM 59.4 °F 59.4 °F 100% 30.17 in 7.0 mi SSE 5.8 mph - N/A   Scattered Clouds
6:35 AM 59.4 °F 59.4 °F 100% 30.17 in 7.0 mi SSE 4.6 mph - N/A   Clear
6:55 AM 59.9 °F 59.9 °F 100% 30.17 in 10.0 mi SSE 6.9 mph - N/A   Clear
7:15 AM 60.1 °F 60.1 °F 100% 30.17 in 10.0 mi SSE 6.9 mph - N/A   Clear
7:35 AM 60.3 °F 60.3 °F 100% 30.18 in 10.0 mi SSE 6.9 mph - N/A   Clear
7:55 AM 61.2 °F 60.4 °F 97% 30.18 in 10.0 mi South 6.9 mph - N/A   Clear
8:15 AM 61.7 °F 60.4 °F 96% 30.18 in 10.0 mi South 9.2 mph - N/A   Clear
8:35 AM 63.5 °F 60.6 °F 90% 30.18 in 10.0 mi South 10.4 mph - N/A   Scattered Clouds
8:55 AM 64.6 °F 60.8 °F 88% 30.18 in 10.0 mi South 8.1 mph 16.1 mph N/A   Mostly Cloudy
9:15 AM 66.6 °F 61.5 °F 84% 30.18 in 10.0 mi South 10.4 mph - N/A   Mostly Cloudy
9:35 AM 68.0 °F 60.8 °F 78% 30.18 in 10.0 mi South 10.4 mph - N/A   Scattered Clouds
9:55 AM 67.5 °F 60.4 °F 78% 30.19 in 10.0 mi South 11.5 mph 19.6 mph N/A   Mostly Cloudy
10:15 AM 69.3 °F 60.8 °F 74% 30.18 in 10.0 mi South 12.7 mph - N/A   Mostly Cloudy
10:35 AM 69.8 °F 62.6 °F 78% 30.18 in 10.0 mi SSE 8.1 mph - N/A   Scattered Clouds
10:55 AM 69.6 °F 60.6 °F 73% 30.19 in 10.0 mi South 13.8 mph 17.3 mph N/A   Mostly Cloudy
11:15 AM 70.9 °F 62.1 °F 74% 30.18 in 10.0 mi SSE 10.4 mph 16.1 mph N/A   Scattered Clouds
11:35 AM 72.1 °F 63.0 °F 73% 30.18 in 10.0 mi SSE 12.7 mph 17.3 mph N/A   Clear
11:55 AM 73.6 °F 63.9 °F 72% 30.18 in 10.0 mi South 12.7 mph 17.3 mph N/A   Scattered Clouds
12:15 PM 73.4 °F 64.0 °F 72% 30.17 in 10.0 mi South 9.2 mph - N/A   Mostly Cloudy
12:35 PM 73.0 °F 63.3 °F 71% 30.17 in 10.0 mi South 11.5 mph 16.1 mph N/A   Mostly Cloudy
12:55 PM 73.4 °F 63.5 °F 71% 30.16 in 10.0 mi SSE 12.7 mph - N/A   Mostly Cloudy
1:15 PM 74.8 °F 63.5 °F 68% 30.15 in 10.0 mi SSE 12.7 mph - N/A   Mostly Cloudy
1:35 PM 75.2 °F 63.9 °F 68% 30.15 in 10.0 mi SSE 9.2 mph - N/A   Scattered Clouds
1:55 PM 76.1 °F 64.0 °F 66% 30.15 in 10.0 mi SSE 11.5 mph - N/A   Scattered Clouds
2:15 PM 75.0 °F 62.6 °F 65% 30.14 in 10.0 mi South 13.8 mph - N/A   Scattered Clouds
2:35 PM 74.7 °F 63.0 °F 67% 30.14 in 10.0 mi South 11.5 mph 16.1 mph N/A   Mostly Cloudy
2:55 PM 74.7 °F 62.2 °F 65% 30.13 in 10.0 mi South 9.2 mph - N/A   Overcast
3:15 PM 75.6 °F 62.2 °F 63% 30.13 in 10.0 mi South 12.7 mph - N/A   Overcast
3:35 PM 75.7 °F 61.7 °F 62% 30.13 in 10.0 mi SSE 10.4 mph - N/A   Overcast
3:55 PM 75.2 °F 62.1 °F 64% 30.12 in 10.0 mi SSE 10.4 mph - N/A   Overcast
4:15 PM 74.8 °F 62.4 °F 65% 30.12 in 10.0 mi SSE 10.4 mph - N/A   Overcast
4:35 PM 74.5 °F 61.9 °F 65% 30.12 in 10.0 mi SSE 10.4 mph - N/A   Overcast
4:55 PM 74.7 °F 62.4 °F 66% 30.12 in 10.0 mi SSE 10.4 mph - N/A   Mostly Cloudy
5:15 PM 74.3 °F 61.9 °F 65% 30.11 in 10.0 mi SSE 11.5 mph 17.3 mph N/A   Overcast
5:35 PM 74.3 °F 61.9 °F 65% 30.11 in 10.0 mi SSE 11.5 mph - N/A   Overcast
5:55 PM 74.5 °F 61.9 °F 65% 30.11 in 10.0 mi SSE 11.5 mph 16.1 mph N/A   Mostly Cloudy
6:15 PM 74.5 °F 61.9 °F 65% 30.11 in 10.0 mi SSE 8.1 mph - N/A   Mostly Cloudy
6:35 PM 73.4 °F 61.9 °F 67% 30.11 in 10.0 mi SSE 6.9 mph - N/A   Overcast
6:55 PM 73.4 °F 61.5 °F 66% 30.11 in 10.0 mi SSE 6.9 mph - N/A   Overcast
7:15 PM 72.5 °F 61.0 °F 67% 30.11 in 10.0 mi SE 8.1 mph - N/A   Scattered Clouds
7:35 PM 71.6 °F 61.3 °F 70% 30.11 in 10.0 mi SE 6.9 mph - N/A   Clear
7:55 PM 70.2 °F 61.7 °F 74% 30.11 in 10.0 mi SE 5.8 mph - N/A   Clear
8:15 PM 68.9 °F 61.7 °F 78% 30.11 in 10.0 mi SE 5.8 mph - N/A   Scattered Clouds
8:35 PM 67.8 °F 61.9 °F 81% 30.11 in 10.0 mi SE 5.8 mph - N/A   Mostly Cloudy
8:55 PM 67.1 °F 61.9 °F 83% 30.11 in 10.0 mi SE 5.8 mph - N/A   Mostly Cloudy
9:15 PM 65.8 °F 62.4 °F 89% 30.11 in 10.0 mi SE 5.8 mph - N/A   Scattered Clouds
9:35 PM 65.7 °F 61.9 °F 88% 30.11 in 10.0 mi SE 6.9 mph - N/A   Clear
9:55 PM 65.3 °F 61.7 °F 88% 30.12 in 10.0 mi SE 8.1 mph - N/A   Scattered Clouds
10:15 PM 64.4 °F 60.8 °F 88% 30.12 in 10.0 mi SE 5.8 mph - N/A   Scattered Clouds
10:35 PM 64.4 °F 60.3 °F 86% 30.13 in 10.0 mi SSE 6.9 mph - N/A   Scattered Clouds
10:55 PM 64.0 °F 59.7 °F 86% 30.13 in 10.0 mi SSE 8.1 mph - N/A   Scattered Clouds
11:15 PM 63.5 °F 59.4 °F 86% 30.13 in 10.0 mi SSE 6.9 mph - N/A   Clear
11:35 PM 62.6 °F 59.0 °F 88% 30.13 in 10.0 mi SSE 6.9 mph - N/A   Scattered Clouds
11:55 PM 62.2 °F 58.6 °F 88% 30.13 in 10.0 mi SSE 6.9 mph - N/A   Scattered Clouds